User: anonymous   Login
Location: Newark
(34.9500°N, 139.9667°E)
Time: 01:55:44
(UTC+00:00)
Language:

Altair - Orbit

View from above orbital plane
View from above orbital plane
View from above satellite
View from above satellite

Ground track
Ground track

The orbit data is extracted from the following two-line orbital elements,

1    50U 60009B   19348.71210167 -.00000099 +00000-0 -12463-3 0  9999
2    50 047.2329 337.7470 0112946 132.3428 228.6993 12.20108551647541
Epoch (UTC): 14 December 2019 17:05:25
Eccentricity: 0.0112946
inclination: 47.2329°
perigee height: 1502 km
apogee height: 1682 km
right ascension of ascending node: 337.7470°
argument of perigee: 132.3428°
revolutions per day: 12.20108551
mean anomaly at epoch: 228.6993°
orbit number at epoch: 64754

The dashed part of the orbit path shows where the satellite is in the earth's shadow,  

DLR